Weather History for KADM - December, 2012

Change the Weather History Date:

Tuesday, December 4, 2012

  Actual Average Record
Temperature  
Mean Temperature 56 °F -  
Max Temperature 69 °F 56 °F 71 °F (1998)
Min Temperature 42 °F 37 °F 19 °F (2006)
Degree Days  
Heating Degree Days 10    
Growing Degree Days 6 (Base 50)    
Moisture  
Dew Point 40 °F    
Average Humidity 54    
Maximum Humidity 83    
Minimum Humidity 16    
Precipitation  
Precipitation 0.00 in - - ()
Sea Level Pressure  
Sea Level Pressure 30.09 in    
Wind  
Wind Speed 9 mph (North)    
Max Wind Speed 15 mph    
Max Gust Speed 22 mph    
Visibility 10 miles    
Events      
Averages and records for this station are not official NWS values.
T = Trace of Precipitation, MM = Missing Value Source: NWS Daily Summary

Daily Weather History Graph

Daily Weather History Graph

Search for Another Location

Airport or City:

Trip Planner

Search our weather history database for the weather conditions in past years. The results will help you decide how hot, cold, wet, or windy it might be!

Date:

Astronomy

Dec. 04, 2012 Rise Set
Actual Time 7:19 AM CST 5:17 PM CST
Civil Twilight 6:51 AM CST 5:45 PM CST
Nautical Twilight 6:20 AM CST 6:16 PM CST
Astronomical Twilight 5:49 AM CST 6:47 PM CST
Moon 10:56 PM CST (12/4) 11:22 AM CST (12/4)
Length of Visible Light 10h 54m
Length of Day
9h 58m
Waning Gibbous, 69% of the Moon is Illuminated
Dec 4
Waning Gibbous
Dec 6
Last Quarter
Dec 13
New
Dec 19
First Quarter
Dec 28
Full

Hourly Weather History & Observations

Time (CST) Temp. Windchill Dew Point Humidity Pressure Visibility Wind Dir Wind Speed Gust Speed Precip Events Conditions
12:15 AM 68.0 °F - 60.8 °F 78% 29.95 in 10.0 mi SSW 6.9 mph - N/A   Clear
12:35 AM 68.0 °F - 60.8 °F 78% 29.95 in 10.0 mi SSW 3.5 mph - N/A   Clear
12:55 AM 66.2 °F - 60.8 °F 83% 29.96 in 10.0 mi NW 4.6 mph - N/A   Scattered Clouds
1:15 AM 62.6 °F - 44.6 °F 52% 29.96 in 10.0 mi North 12.7 mph - N/A   Mostly Cloudy
1:35 AM 60.8 °F - 42.8 °F 52% 29.96 in 10.0 mi North 11.5 mph - N/A   Overcast
1:55 AM 60.8 °F - 41.0 °F 48% 29.97 in 10.0 mi North 15.0 mph - N/A   Overcast
2:15 AM 60.8 °F - 42.8 °F 52% 29.98 in 10.0 mi North 11.5 mph - N/A   Overcast
2:55 AM 60.8 °F - 42.8 °F 52% 29.99 in 10.0 mi North 10.4 mph - N/A   Mostly Cloudy
3:15 AM 60.8 °F - 42.8 °F 52% 29.98 in 10.0 mi North 12.7 mph 18.4 mph N/A   Mostly Cloudy
3:35 AM 59.0 °F - 42.8 °F 55% 29.99 in 10.0 mi North 11.5 mph 17.3 mph N/A   Scattered Clouds
3:55 AM 59.0 °F - 42.8 °F 55% 30.00 in 10.0 mi North 11.5 mph - N/A   Mostly Cloudy
4:15 AM 59.0 °F - 42.8 °F 55% 30.01 in 10.0 mi North 10.4 mph 16.1 mph N/A   Overcast
4:35 AM 57.2 °F - 42.8 °F 59% 30.02 in 10.0 mi North 13.8 mph - N/A   Scattered Clouds
4:55 AM 57.2 °F - 44.6 °F 63% 30.02 in 10.0 mi North 10.4 mph - N/A   Clear
5:15 AM 55.4 °F - 44.6 °F 67% 30.04 in 10.0 mi North 11.5 mph - N/A   Clear
5:35 AM 55.4 °F - 42.8 °F 63% 30.05 in 10.0 mi North 13.8 mph 19.6 mph N/A   Clear
8:55 AM 57.2 °F - 39.2 °F 51% 30.18 in 10.0 mi NNE 12.7 mph 21.9 mph N/A   Clear
11:55 AM 66.2 °F - 33.8 °F 30% 30.22 in 10.0 mi NNE 4.6 mph 9.2 mph N/A   Clear
1:55 PM 69.8 °F - 39.2 °F 33% 30.20 in 10.0 mi NNE 10.4 mph 16.1 mph N/A   Clear
3:55 PM 69.8 °F - 21.2 °F 16% 30.21 in 10.0 mi NNE 13.8 mph - N/A   Clear
10:35 PM 44.6 °F 40.7 °F 26.6 °F 49% 30.30 in 10.0 mi North 6.9 mph - N/A   Clear
10:55 PM 42.8 °F 39.3 °F 26.6 °F 53% 30.30 in 10.0 mi North 5.8 mph - N/A   Clear
11:15 PM 42.8 °F 41.1 °F 26.6 °F 53% 30.30 in 10.0 mi North 3.5 mph - N/A   Clear
11:35 PM 44.6 °F - 28.4 °F 53% 30.31 in 10.0 mi Calm Calm - N/A   Clear
11:55 PM 42.8 °F 38.6 °F 28.4 °F 57% 30.30 in 10.0 mi NNE 6.9 mph - N/A   Clear